Regional Weather Roundup
Issued by NWS

Home | Current Version | Previous Version | Text Only | Print | Product List | Glossary Off
Versions: 1 2 3 4 5 6 7 8 9 10 11 12 13 14 15 16 17 18 19 20 21 22 23 24 25 26 27 28 29 30 31 32 33 34 35 36 37 38 39 40 41 42 43 44 45 46 47 48 49 50

606
ASUS45 KBOI 250610
RWRID

IDAHO REGIONAL WEATHER ROUNDUP
NATIONAL WEATHER SERVICE BOISE ID
1200 AM MDT TUE JUL 25 2017

NOTE: "FAIR" INDICATES FEW OR NO CLOUDS BELOW 12000 FEET
WITH NO SIGNIFICANT WEATHER AND/OR OBSTRUCTIONS TO VISIBILITY

IDZ012-014-250700-
SOUTHWEST IDAHO


CITY           SKY/WX    TMP DP  RH WIND       PRES   REMARKS
BOISE          CLOUDY    80  47  31 VRB3      29.88R
CALDWELL       CLOUDY    79  51  37 W7        29.86S
MOUNTAIN HOME  CLOUDY    83  51  32 W13       29.91R
$$

IDZ016-017-250700-
SOUTHCENTRAL IDAHO


CITY           SKY/WX    TMP DP  RH WIND       PRES   REMARKS
BURLEY         CLOUDY    76  50  40 SW14      29.97R
JEROME         CLOUDY    78  48  34 S9        30.00R
TWIN FALLS     CLOUDY    78  50  37 S18G24    29.99R
$$

IDZ019>023-250700-
SOUTHEAST IDAHO


CITY           SKY/WX    TMP DP  RH WIND       PRES   REMARKS
IDAHO FALLS    MOCLDY    64  55  72 N3        30.02S
POCATELLO      PTCLDY    70  53  54 N12       30.01R
REXBURG        CLOUDY    66  51  58 N8        30.04R
$$

IDZ006-010-011-018-031-032-250700-
CENTRAL IDAHO MOUNTAINS


CITY           SKY/WX    TMP DP  RH WIND       PRES   REMARKS
MCCALL         MOCLDY    70  46  42 N3        30.04S
HAILEY         CLOUDY    68  48  49 NW7       30.08S
STANLEY          N/A     64  40  41 CALM      30.17R
SALMON         NOT AVBL
CHALLIS        MOCLDY    68  45  43 NW5       30.05R
$$

IDZ002-004-006-007-026-250700-
NORTHERN IDAHO


CITY           SKY/WX    TMP DP  RH WIND       PRES   REMARKS
LEWISTON       CLOUDY    75  31  19 S6        29.89R
LOWELL           N/A     66  48  52 CALM      29.93R
COEUR D`ALENE  PTCLDY    63  44  50 CALM      29.95R
MULLAN PASS    CLOUDY    59  27  29 NW5       30.14S
$$




USA.gov is the U.S. government's official web portal to all federal, state and local government web resources and services.